This is the latest recevied weather packets stored in our database for station/object K8RRT. If no packets are shown the sender has not sent any weather packets the latest 10 day(s).
| Time | Temp. | Humidity | Pressure | Rain* | Wind** | Luminosity | Snow |
|---|---|---|---|---|---|---|---|
| 1778190218 | 17.78° C | 43% | 1008.3 hPa | 0 mm | - | 448 W/m² | - |
| 1778189912 | 17.22° C | 44% | 1008.2 hPa | 0 mm | - | 138 W/m² | - |
| 1778189610 | 17.78° C | 43% | 1008.1 hPa | 0 mm | - | 450 W/m² | - |
| 1778189306 | 17.22° C | 42% | 1008 hPa | 0 mm | - | 430 W/m² | - |
| 1778189002 | 17.78° C | 43% | 1008.1 hPa | 0 mm | - | 223 W/m² | - |
| 1778188699 | 17.78° C | 43% | 1008.1 hPa | 0 mm | - | 478 W/m² | - |
| 1778188396 | 17.78° C | 41% | 1008 hPa | 0 mm | - | 500 W/m² | - |
| 1778188092 | 17.78° C | 44% | 1008 hPa | 0 mm | - | 470 W/m² | - |
| 1778187789 | 18.33° C | 44% | 1007.9 hPa | 0 mm | - | 360 W/m² | - |
| 1778187485 | 17.78° C | 45% | 1007.8 hPa | 0 mm | - | 578 W/m² | - |
| 1778187183 | 17.22° C | 44% | 1008 hPa | 0 mm | - | 618 W/m² | - |
| 1778186879 | 17.22° C | 46% | 1007.5 hPa | 0 mm | - | 184 W/m² | - |
| 1778186577 | 17.78° C | 46% | 1007.6 hPa | 0 mm | - | 179 W/m² | - |
| 1778186274 | 17.22° C | 47% | 1007.8 hPa | 0 mm | - | 198 W/m² | - |
| 1778185972 | 18.33° C | 43% | 1007.6 hPa | 0 mm | - | 674 W/m² | - |
| 1778185668 | 18.33° C | 44% | 1007.7 hPa | 0 mm | - | 670 W/m² | - |
| 1778185364 | 17.78° C | 44% | 1007.6 hPa | 0 mm | - | 650 W/m² | - |
| 1778185059 | 17.78° C | 45% | 1007.8 hPa | 0 mm | - | 569 W/m² | - |
| 1778184756 | 17.22° C | 44% | 1008 hPa | 0 mm | - | 465 W/m² | - |
| 1778184452 | 17.22° C | 49% | 1007.9 hPa | 0 mm | - | 563 W/m² | - |
| 1778184148 | 16.11° C | 49% | 1008.2 hPa | 0 mm | - | 704 W/m² | - |
| 1778183845 | 16.11° C | 48% | 1008.2 hPa | 0 mm | - | 129 W/m² | - |
| 1778183542 | 16.67° C | 47% | 1008.1 hPa | 0 mm | - | 688 W/m² | - |
| 1778183239 | 16.67° C | 47% | 1008.1 hPa | 0 mm | - | 171 W/m² | - |
| 1778182935 | 17.22° C | 51% | 1008 hPa | 0 mm | - | 749 W/m² | - |
* Rain latest hour (hover to see other rain measurements)
** Current wind speed in m/s (hover to see current wind gust speed)